Date String (YYYY-MM-DD hh:mm:ss) UTC,Instrument flags,Ambient pressure (hPa),Sample flow (lpm),Bypass flow (lpm),Sample temperature (°C),Ambient temperature (°C),ASC tube jacket temperature (°C),LED temperature (°C),Box temperature (°C),Sample RH (%),Span deviation,Mass concentration (μg/m³),Mass concentration (μg/m³),Mass concentration (μg/m³)
DateTimeUTC,F1_M11,P_M11,Q1_M11,Q2_M11,T1_M11,T2_M11,T3_M11,T4_M11,T5_M11,U1_M11,ZSPAN_M11,X2_M11,X0_M11,X1_M11
2023-04-23 08:00:00,,0830.8,5.00,0.00,22.7,21.1,00.0,31.2,24.2,13.1,0000.0,0003.40,0004.66,0003.13
2023-04-23 08:01:00,,0830.8,5.00,0.00,22.7,21.0,00.0,31.2,24.2,13.2,0000.0,0003.38,0004.60,0003.12
2023-04-23 08:02:00,,0830.7,5.00,0.00,22.7,21.0,00.0,31.1,24.2,13.2,0000.0,0003.39,0004.62,0003.13
2023-04-23 08:03:00,,0830.7,5.00,0.00,22.6,21.0,00.0,31.1,24.1,13.2,0000.0,0003.37,0004.55,0003.13
2023-04-23 08:04:00,,0830.7,5.00,0.00,22.6,20.9,00.0,31.1,24.1,13.2,0000.0,0003.38,0004.57,0003.13
2023-04-23 08:05:00,,0830.7,5.00,0.00,22.6,20.9,00.0,31.1,24.1,13.2,0000.0,0003.40,0004.61,0003.14
2023-04-23 08:06:00,,0830.7,5.01,0.00,22.6,20.8,00.0,31.1,24.1,13.3,0000.0,0003.41,0004.62,0003.16
2023-04-23 08:07:00,,0830.6,5.01,0.00,22.5,20.8,00.0,31.1,24.0,13.3,0000.0,0003.40,0004.55,0003.16
2023-04-23 08:08:00,,0830.6,5.01,0.00,22.5,20.8,00.0,31.0,24.0,13.2,0000.0,0003.39,0004.53,0003.17
2023-04-23 08:09:00,,0830.6,5.00,0.00,22.6,21.2,00.0,31.0,24.3,13.2,0000.0,0003.39,0004.95,0003.18
2023-04-23 08:10:00,,0830.7,4.98,0.00,22.7,22.2,00.0,30.9,24.6,13.1,0000.0,0003.39,0004.97,0003.18
2023-04-23 08:11:00,,0830.7,5.01,0.00,22.8,22.9,00.0,30.9,24.8,13.0,0000.0,0003.38,0004.91,0003.18
2023-04-23 08:12:00,,0830.6,5.01,0.00,22.9,22.9,00.0,31.0,24.7,13.0,0000.0,0003.38,0004.92,0003.18
2023-04-23 08:13:00,,0830.6,5.00,0.00,22.8,22.6,00.0,31.1,24.6,12.9,0000.0,0003.39,0005.02,0003.18
2023-04-23 08:14:00,,0830.6,4.98,0.00,22.8,22.3,00.0,31.1,24.6,12.9,0000.0,0003.37,0004.91,0003.17
2023-04-23 08:15:00,,0830.6,5.01,0.00,22.8,22.1,00.0,31.1,24.5,13.0,0000.0,0003.36,0004.90,0003.17
2023-04-23 08:16:00,,0830.5,5.00,0.00,22.8,21.9,00.0,31.1,24.4,13.0,0000.0,0003.36,0004.88,0003.16
2023-04-23 08:17:00,,0830.5,5.00,0.00,22.8,21.7,00.0,31.1,24.3,13.0,0000.0,0003.37,0004.97,0003.15
2023-04-23 08:18:00,,0830.5,5.00,0.00,22.7,21.5,00.0,31.1,24.3,13.0,0000.0,0003.37,0005.01,0003.14
2023-04-23 08:19:00,,0830.5,5.00,0.00,22.7,21.4,00.0,31.1,24.3,13.0,0000.0,0003.39,0005.15,0003.13
2023-04-23 08:20:00,,0830.5,5.00,0.00,22.7,21.3,00.0,31.1,24.2,13.0,0000.0,0003.39,0004.73,0003.13
2023-04-23 08:21:00,,0830.6,5.00,0.00,22.7,21.1,00.0,31.1,24.2,13.0,0000.0,0003.39,0004.59,0003.12
2023-04-23 08:22:00,,0830.5,5.01,0.00,22.6,21.1,00.0,31.1,24.2,13.0,0000.0,0003.38,0004.58,0003.12
2023-04-23 08:23:00,,0830.5,5.00,0.00,22.6,21.0,00.0,31.1,24.1,13.1,0000.0,0003.37,0004.53,0003.11
2023-04-23 08:24:00,,0830.5,4.99,0.00,22.6,21.0,00.0,31.1,24.1,13.1,0000.0,0003.36,0004.44,0003.11
2023-04-23 08:25:00,,0830.5,5.00,0.00,22.6,20.9,00.0,31.1,24.1,13.1,0000.0,0003.37,0004.53,0003.11
2023-04-23 08:26:00,,0830.4,5.00,0.00,22.6,20.9,00.0,31.0,24.1,13.1,0000.0,0003.39,0004.57,0003.12
2023-04-23 08:27:00,,0830.4,4.99,0.00,22.5,20.8,00.0,31.0,24.0,13.1,0000.0,0003.40,0004.62,0003.12
2023-04-23 08:28:00,,0830.4,4.99,0.00,22.5,20.8,00.0,31.0,24.1,13.1,0000.0,0003.39,0004.60,0003.11
2023-04-23 08:29:00,,0830.5,5.00,0.00,22.5,20.8,00.0,31.0,24.0,13.2,0000.0,0003.39,0004.60,0003.11
2023-04-23 08:30:00,,0830.6,5.00,0.00,22.5,20.8,00.0,31.0,24.0,13.2,0000.0,0003.37,0004.54,0003.10
2023-04-23 08:31:00,,0830.4,5.01,0.00,22.5,21.4,00.0,30.9,24.3,13.2,0000.0,0003.36,0004.57,0003.10
2023-04-23 08:32:00,,0830.6,4.99,0.00,22.7,22.4,00.0,30.9,24.6,13.1,0000.0,0003.36,0004.66,0003.10
2023-04-23 08:33:00,,0830.7,4.99,0.00,22.8,23.1,00.0,30.9,24.8,13.0,0000.0,0003.36,0004.67,0003.10
2023-04-23 08:34:00,,0830.4,5.02,0.00,22.8,22.9,00.0,31.0,24.7,12.9,0000.0,0003.37,0004.81,0003.10
2023-04-23 08:35:00,,0830.4,5.00,0.00,22.8,22.6,00.0,31.0,24.6,12.9,0000.0,0003.37,0005.99,0003.10
2023-04-23 08:36:00,,0830.5,5.00,0.00,22.8,22.3,00.0,31.1,24.5,12.9,0000.0,0003.38,0006.07,0003.09
2023-04-23 08:37:00,,0830.4,5.00,0.00,22.8,22.0,00.0,31.1,24.4,12.9,0000.0,0003.36,0006.04,0003.05
2023-04-23 08:38:00,,0830.4,5.01,0.00,22.8,21.7,00.0,31.1,24.3,12.9,0000.0,0003.32,0006.30,0003.02
2023-04-23 08:39:00,,0830.3,5.00,0.00,22.7,21.5,00.0,31.1,24.3,12.9,0000.0,0003.31,0007.12,0003.03
2023-04-23 08:40:00,,0830.4,5.01,0.00,22.7,21.4,00.0,31.1,24.3,12.9,0000.0,0003.30,0007.13,0003.02
2023-04-23 08:41:00,,0830.4,5.00,0.00,22.7,21.3,00.0,31.1,24.2,12.9,0000.0,0003.27,0007.00,0002.99
2023-04-23 08:42:00,,0830.3,5.00,0.00,22.7,21.2,00.0,31.1,24.2,12.9,0000.0,0003.28,0006.99,0002.97
2023-04-23 08:43:00,,0830.3,5.00,0.00,22.6,21.1,00.0,31.1,24.2,12.9,0000.0,0003.28,0006.98,0002.95
2023-04-23 08:44:00,,0830.3,4.99,0.00,22.6,21.0,00.0,31.1,24.1,12.9,0000.0,0003.28,0007.04,0002.93
2023-04-23 08:45:00,,0830.3,5.00,0.00,22.6,21.0,00.0,31.1,24.1,12.9,0000.0,0003.28,0007.00,0002.91
2023-04-23 08:46:00,,0830.3,5.01,0.00,22.6,20.9,00.0,31.0,24.1,12.9,0000.0,0003.26,0005.91,0002.90
2023-04-23 08:47:00,,0830.3,5.01,0.00,22.5,20.8,00.0,31.0,24.0,12.9,0000.0,0003.25,0005.58,0002.89
2023-04-23 08:48:00,,0830.3,5.00,0.00,22.5,20.8,00.0,31.0,24.0,13.0,0000.0,0003.26,0006.11,0002.89
2023-04-23 08:49:00,,0830.3,5.00,0.00,22.5,20.7,00.0,31.0,24.0,13.1,0000.0,0003.26,0006.23,0002.90
2023-04-23 08:50:00,,0830.3,4.99,0.00,22.5,20.7,00.0,31.0,24.0,13.0,0000.0,0003.24,0004.93,0002.88
2023-04-23 08:51:00,,0830.3,5.00,0.00,22.5,21.1,00.0,30.9,24.2,13.0,0000.0,0003.23,0004.84,0002.86
2023-04-23 08:52:00,,0830.3,5.00,0.00,22.6,22.1,00.0,30.9,24.5,12.8,0000.0,0003.24,0004.87,0002.87
2023-04-23 08:53:00,,0830.3,4.99,0.00,22.7,23.0,00.0,30.9,24.8,12.7,0000.0,0003.25,0004.91,0002.87
2023-04-23 08:54:00,,0830.3,4.99,0.00,22.8,23.0,00.0,31.0,24.7,12.6,0000.0,0003.23,0004.82,0002.85
2023-04-23 08:55:00,,0830.3,5.00,0.00,22.8,22.7,00.0,31.0,24.6,12.5,0000.0,0003.21,0004.72,0002.83
2023-04-23 08:56:00,,0830.2,5.00,0.00,22.8,22.3,00.0,31.0,24.4,12.5,0000.0,0003.19,0004.70,0002.82
2023-04-23 08:57:00,,0830.3,5.00,0.00,22.8,22.0,00.0,31.1,24.4,12.5,0000.0,0003.18,0004.64,0002.81
2023-04-23 08:58:00,,0830.3,5.00,0.00,22.7,21.7,00.0,31.1,24.3,12.6,0000.0,0003.16,0004.59,0002.80
2023-04-23 08:59:00,,0830.3,4.99,0.00,22.7,21.5,00.0,31.1,24.2,12.6,0000.0,0003.14,0004.38,0002.78
